Weather History for Pittsburg, KS

Change the Weather History Date:

Thursday, December 27, 2012

  Actual Average (KJLN) Record (KJLN)
Temperature  
Mean Temperature 31 °F 35 °F  
Max Temperature 40 °F 45 °F 70 °F (2005)
Min Temperature 22 °F 26 °F 12 °F (1951)
Degree Days  
Heating Degree Days 34 30  
Month to date heating degree days 741  
Since 1 July heating degree days 1498  
Cooling Degree Days 0 0  
Month to date cooling degree days 0  
Year to date cooling degree days 1698  
Moisture  
Dew Point 22 °F    
Average Humidity 69    
Maximum Humidity 86    
Minimum Humidity 49    
Precipitation  
Precipitation 0.00 in 0.08 in 2.35 in (1954)
Month to date precipitation 2.53  
Year to date precipitation 46.26  
Sea Level Pressure  
Sea Level Pressure 30.00 in    
Wind  
Wind Speed 6 mph (SSE)    
Max Wind Speed 13 mph    
Max Gust Speed 18 mph    
Visibility 10 miles    
Events      
T = Trace of Precipitation, MM = Missing Value Source: NWS Daily Summary

Daily Weather History Graph

Daily Weather History Graph

Search for Another Location

Airport:

Trip Planner

Search our weather history database for the weather conditions in past years. The results will help you decide how hot, cold, wet, or windy it might be!

Date:

Astronomy

Dec. 27, 2012 Rise Set
Actual Time 7:32 AM CST 5:08 PM CST
Civil Twilight 7:03 AM CST 5:37 PM CST
Nautical Twilight 6:30 AM CST 6:10 PM CST
Astronomical Twilight 5:58 AM CST 6:42 PM CST
Moon 4:51 PM CST (12/27) 6:44 AM CST (12/27)
Length of Visible Light 10h 34m
Length of Day
9h 35m
Full, 100% of the Moon is Illuminated
Dec 27
Full
Dec 28
Full
Jan 4
Last Quarter
Jan 11
New
Jan 18
First Quarter

Hourly Weather History & Observations

Time (CST) Temp. Windchill Dew Point Humidity Pressure Visibility Wind Dir Wind Speed Gust Speed Precip Events Conditions
12:15 AM 22.3 °F 17.6 °F 18.7 °F 86% 30.12 in 10.0 mi East 3.5 mph - N/A   Clear
12:35 AM 23.0 °F 18.4 °F 19.2 °F 85% 30.12 in 10.0 mi East 3.5 mph - N/A   Clear
12:55 AM 23.9 °F 19.5 °F 18.7 °F 80% 30.12 in 10.0 mi East 3.5 mph - N/A   Clear
1:15 AM 24.3 °F 18.4 °F 19.0 °F 80% 30.12 in 10.0 mi East 4.6 mph - N/A   Clear
1:35 AM 24.3 °F 16.3 °F 18.9 °F 80% 30.10 in 10.0 mi East 6.9 mph - N/A   Clear
1:55 AM 24.3 °F 17.3 °F 18.9 °F 80% 30.11 in 10.0 mi ENE 5.8 mph - N/A   Clear
2:15 AM 24.4 °F 17.5 °F 19.2 °F 81% 30.12 in 10.0 mi East 5.8 mph - N/A   Clear
2:35 AM 24.4 °F 20.1 °F 19.4 °F 81% 30.12 in 10.0 mi East 3.5 mph - N/A   Clear
2:55 AM 23.9 °F 18.0 °F 19.2 °F 82% 30.11 in 10.0 mi East 4.6 mph - N/A   Clear
3:15 AM 23.9 °F 15.8 °F 19.6 °F 84% 30.10 in 10.0 mi East 6.9 mph - N/A   Clear
3:55 AM 25.3 °F 17.6 °F 20.7 °F 82% 30.09 in 10.0 mi East 6.9 mph - N/A   Clear
4:15 AM 25.7 °F 18.0 °F 20.8 °F 82% 30.09 in 10.0 mi East 6.9 mph - N/A   Clear
4:35 AM 25.7 °F 18.0 °F 20.7 °F 81% 30.08 in 10.0 mi East 6.9 mph - N/A   Clear
4:55 AM 25.2 °F 19.5 °F 20.3 °F 82% 30.07 in 10.0 mi ESE 4.6 mph - N/A   Clear
5:15 AM 24.8 °F 19.1 °F 20.3 °F 83% 30.08 in 10.0 mi ESE 4.6 mph - N/A   Clear
5:35 AM 25.7 °F 19.0 °F 20.8 °F 82% 30.07 in 10.0 mi East 5.8 mph - N/A   Clear
5:55 AM 25.7 °F 20.1 °F 20.8 °F 82% 30.07 in 10.0 mi ESE 4.6 mph - N/A   Clear
6:15 AM 25.7 °F 20.1 °F 20.5 °F 81% 30.07 in 10.0 mi East 4.6 mph - N/A   Clear
6:35 AM 25.7 °F 19.0 °F 20.7 °F 81% 30.06 in 10.0 mi ESE 5.8 mph - N/A   Clear
6:55 AM 25.7 °F 20.1 °F 20.7 °F 81% 30.06 in 10.0 mi ESE 4.6 mph - N/A   Clear
7:15 AM 25.7 °F 19.0 °F 20.5 °F 81% 30.07 in 10.0 mi SE 5.8 mph - N/A   Clear
7:35 AM 25.7 °F 16.4 °F 20.3 °F 80% 30.03 in 10.0 mi SE 9.2 mph - N/A   Clear
7:55 AM 25.7 °F 18.0 °F 20.7 °F 81% 30.04 in 10.0 mi SE 6.9 mph - N/A   Clear
8:15 AM 25.7 °F 19.0 °F 20.7 °F 81% 30.05 in 10.0 mi SSE 5.8 mph - N/A   Clear
8:35 AM 27.3 °F 19.9 °F 21.9 °F 80% 30.05 in 10.0 mi SSE 6.9 mph - N/A   Clear
8:55 AM 28.2 °F 22.0 °F 22.1 °F 78% 30.05 in 10.0 mi SE 5.8 mph - N/A   Clear
9:15 AM 29.7 °F 22.8 °F 23.0 °F 76% 30.05 in 10.0 mi SSE 6.9 mph - N/A   Clear
9:35 AM 30.7 °F 22.0 °F 23.0 °F 73% 30.05 in 10.0 mi SSE 10.4 mph - N/A   Clear
9:55 AM 30.9 °F 22.2 °F 22.3 °F 70% 30.05 in 10.0 mi South 10.4 mph - N/A   Clear
10:35 AM 32.7 °F 25.7 °F 22.3 °F 65% 30.05 in 10.0 mi SSE 8.1 mph - N/A   Clear
10:55 AM 34.5 °F 27.3 °F 23.0 °F 63% 30.04 in 10.0 mi South 9.2 mph 16.1 mph N/A   Clear
11:15 AM 35.1 °F 29.3 °F 22.6 °F 61% 30.03 in 10.0 mi SSE 6.9 mph - N/A   Clear
11:35 AM 35.6 °F 28.6 °F 23.2 °F 61% 30.01 in 10.0 mi SSE 9.2 mph - N/A   Clear
11:55 AM 35.6 °F 29.9 °F 23.2 °F 61% 30.01 in 10.0 mi SSE 6.9 mph - N/A   Clear
12:15 PM 35.6 °F 29.9 °F 23.2 °F 61% 29.99 in 10.0 mi SE 6.9 mph - N/A   Clear
12:35 PM 35.6 °F 28.6 °F 22.8 °F 60% 29.98 in 10.0 mi SSE 9.2 mph - N/A   Clear
12:55 PM 37.0 °F 31.6 °F 22.8 °F 56% 29.97 in 10.0 mi South 6.9 mph - N/A   Clear
1:15 PM 37.9 °F 32.7 °F 23.0 °F 55% 29.96 in 10.0 mi South 6.9 mph - N/A   Clear
1:35 PM 37.9 °F 32.1 °F 22.3 °F 53% 29.95 in 10.0 mi South 8.1 mph - N/A   Clear
1:55 PM 37.9 °F 30.5 °F 21.4 °F 51% 29.94 in 10.0 mi South 11.5 mph 16.1 mph N/A   Clear
2:15 PM 38.7 °F 30.9 °F 21.4 °F 50% 29.93 in 10.0 mi South 12.7 mph 18.4 mph N/A   Clear
2:35 PM 39.6 °F 32.1 °F 22.3 °F 50% 29.93 in 10.0 mi South 12.7 mph - N/A   Clear
2:55 PM 40.5 °F 35.8 °F 23.0 °F 50% 29.92 in 10.0 mi South 6.9 mph - N/A   Clear
3:15 PM 40.5 °F 34.1 °F 23.0 °F 50% 29.92 in 10.0 mi South 10.4 mph - N/A   Clear
3:35 PM 40.5 °F 34.1 °F 22.8 °F 49% 29.92 in 10.0 mi South 10.4 mph - N/A   Clear
3:55 PM 40.5 °F 34.1 °F 23.0 °F 50% 29.91 in 10.0 mi South 10.4 mph - N/A   Clear
4:15 PM 40.5 °F 35.1 °F 23.2 °F 50% 29.91 in 10.0 mi South 8.1 mph - N/A   Clear
4:35 PM 40.5 °F 34.6 °F 23.7 °F 51% 29.90 in 10.0 mi South 9.2 mph - N/A   Clear
4:55 PM 40.5 °F 34.1 °F 23.9 °F 52% 29.90 in 10.0 mi South 10.4 mph - N/A   Clear
5:15 PM 40.5 °F 35.1 °F 24.3 °F 52% 29.91 in 10.0 mi South 8.1 mph - N/A   Mostly Cloudy
5:35 PM 38.8 °F 33.8 °F 23.4 °F 54% 29.90 in 10.0 mi South 6.9 mph - N/A   Scattered Clouds
5:55 PM 37.9 °F 32.7 °F 23.2 °F 55% 29.91 in 10.0 mi SSW 6.9 mph - N/A   Clear
6:15 PM 37.9 °F 32.7 °F 24.3 °F 58% 29.91 in 10.0 mi SSW 6.9 mph - N/A   Scattered Clouds
6:35 PM 37.4 °F 32.8 °F 24.4 °F 60% 29.91 in 10.0 mi SW 5.8 mph - N/A   Scattered Clouds
6:55 PM 36.5 °F 31.8 °F 23.9 °F 60% 29.91 in 10.0 mi SSW 5.8 mph - N/A   Mostly Cloudy
7:15 PM 35.6 °F 30.7 °F 23.7 °F 62% 29.91 in 10.0 mi SSW 5.8 mph - N/A   Scattered Clouds
7:35 PM 35.8 °F 30.9 °F 23.9 °F 62% 29.91 in 10.0 mi SW 5.8 mph - N/A   Scattered Clouds
7:55 PM 35.6 °F 30.7 °F 24.3 °F 63% 29.92 in 10.0 mi SW 5.8 mph - N/A   Clear
8:15 PM 35.6 °F 32.8 °F 24.8 °F 65% 29.92 in 10.0 mi SW 3.5 mph - N/A   Clear
8:35 PM 35.6 °F 32.8 °F 25.5 °F 67% 29.92 in 10.0 mi WSW 3.5 mph - N/A   Clear
8:55 PM 35.6 °F 32.8 °F 25.9 °F 68% 29.94 in 10.0 mi West 3.5 mph - N/A   Scattered Clouds
9:15 PM 35.6 °F 32.8 °F 26.1 °F 68% 29.94 in 10.0 mi West 3.5 mph - N/A   Mostly Cloudy
9:35 PM 35.6 °F - 26.1 °F 68% 29.95 in 10.0 mi Calm Calm - N/A   Overcast
9:55 PM 33.8 °F - 25.5 °F 72% 29.96 in 10.0 mi Calm Calm - N/A   Mostly Cloudy
10:15 PM 32.9 °F - 25.0 °F 73% 29.96 in 10.0 mi Calm Calm - N/A   Overcast
10:35 PM 32.9 °F - 25.3 °F 74% 29.96 in 10.0 mi Calm Calm - N/A   Overcast
10:55 PM 32.9 °F 29.8 °F 25.7 °F 75% 29.97 in 10.0 mi SW 3.5 mph - N/A   Mostly Cloudy
11:35 PM 32.9 °F - 26.1 °F 76% 29.95 in 10.0 mi Calm Calm - N/A   Mostly Cloudy
11:55 PM 32.9 °F 28.5 °F 26.2 °F 76% 29.97 in 10.0 mi WSW 4.6 mph - N/A   Mostly Cloudy